Regional Weather Roundup
Issued by NWS

Current Version | Previous Version | Text Only | Print | Product List | Glossary Off
Versions: 1 2 3 4 5 6 7 8 9 10 11 12 13 14 15 16 17 18 19 20 21 22 23 24 25 26 27

000
ASUS44 KBMX 181110
RWRAL

ALABAMA REGIONAL WEATHER ROUNDUP
NATIONAL WEATHER SERVICE BIRMINGHAM AL
600 AM CDT WED OCT 18 2017

NOTE: "FAIR" INDICATES FEW OR NO CLOUDS BELOW 12,000 FEET
WITH NO SIGNIFICANT WEATHER AND/OR OBSTRUCTIONS TO VISIBILITY.

THE REMARK "TC" DENOTES TEMPERATURE IN DEGREES CELSIUS.

ALZ001>011-014-016>018-020-181200-
NORTH ALABAMA

CITY           SKY/WX    TMP DP  RH WIND       PRES   REMARKS
MUSCLE SHOALS  PTCLDY    43  41  93 CALM      30.29R
HUNTSVILLE     CLEAR     45  45 100 CALM      30.28R
DECATUR        CLEAR     48  46  93 E6        30.29R
HALEYVILLE     FAIR      42  42 100 CALM      30.29R FOG
GADSDEN        CLEAR     40  40 100 CALM      30.32R
$$

ALZ012-013-022-023-030>036-040>044-181200-
WEST CENTRAL ALABAMA

CITY           SKY/WX    TMP DP  RH WIND       PRES   REMARKS
TUSCALOOSA     CLEAR     47  47 100 CALM      30.28R
DEMOPOLIS        N/A     46  45  96 CALM      30.26R
$$

ALZ015-024>026-033>036-041>044-181200-
CENTRAL ALABAMA

CITY           SKY/WX    TMP DP  RH WIND       PRES   REMARKS
BIRMINGHAM     CLEAR     48  44  86 CALM      30.31R
MONTGOMERY     CLEAR     50  43  77 E3        30.28R
SHELBY CO ARPT CLEAR     50  47  89 CALM      30.28S
MAXWELL AFB    CLEAR     51  47  89 NE5       30.26R
GREENVILLE     FAIR      49  42  77 NE5       30.24R
SELMA          FAIR      43  41  93 CALM      30.26R
PRATTVILLE     FAIR      46  45  98 CALM      30.27R
BESSEMER       FAIR      50  45  83 E3        30.29R
TALLADEGA      FAIR      43  42  98 CALM      30.31S
PELL CITY      FOG       41  41 100 CALM      30.31R VSB 0
MARION         NOT AVBL
SYLACAUGA      FAIR      42  42 100 CALM      30.30R
$$

ALZ019-021-028-029-037-038-045>048-181200-
EAST CENTRAL ALABAMA

CITY           SKY/WX    TMP DP  RH WIND       PRES   REMARKS
ANNISTON       CLEAR     47  43  86 NE5       30.30S
ALEXANDER CITY CLEAR     45  43  95 CALM      30.29R
AUBURN         CLEAR     48  42  80 NE7       30.29R
$$

ALZ051>064-181200-
SOUTHWEST ALABAMA

CITY           SKY/WX    TMP DP  RH WIND       PRES   REMARKS
MOBILE         CLEAR     54  47  77 NE8       30.21R
BROOKLEY FIELD CLEAR     63  50  62 NE12G21   30.21R
EVERGREEN      CLEAR     46  43  89 CALM      30.24R
$$

ALZ049-050-065>069-181200-
SOUTHEAST ALABAMA

CITY           SKY/WX    TMP DP  RH WIND       PRES   REMARKS
DOTHAN         CLEAR     49  44  83 NE7       30.26R
OZARK          CLEAR     47  42  82 N7        30.23R
TROY           CLEAR     45  44  97 NE3       30.26R
EUFAULA        FAIR      44  43  96 NW3       30.25S
$$




USA.gov is the U.S. government's official web portal to all federal, state and local government web resources and services.